Tracking 29892 objects as of 21-Nov-2024
HD Live streaming from Space Station
objects crossing your sky now

SL-16 DEB

Track SL-16 DEB now!
10-day predictions


NORAD ID: 24284
Int'l Code: 1995-058G
Perigee: 822.0 km
Apogee: 843.2 km
Inclination: 70.9 °
Period: 101.4 minutes
Semi major axis: 7203 km
RCS: 0.041 m2 (small)
Launch date: October 31, 1995
Source: Commonwealth of Independent States (former USSR) (CIS)
Launch site: TYURATAM MISSILE AND SPACE COMPLEX (TTMTR)

Note: This is SATELLITE DEBRIS
Your satellite tracking list
Your tracking list is empty




NASA's NSSDC Master Catalog

Two Line Element Set (TLE):
1 24284U 95058G   24325.63202715  .00000496  00000-0  25610-3 0  9995
2 24284  70.8616 184.6947 0014717 277.3419  82.6032 14.19964646502662
Source of the keplerian elements: AFSPC